| time (UTC) | temp F | wind direction | speed MPH | gust MPH | rain 1hr in | rain 24hr in | rain mn in | humidity % | barometer mb |
| 20260509133006 | 55 | 356 | 0.0 | 1.0 | 0.00 | 0.00 | 0.00 | 56 | 1017.8 |
| 20260509132505 | 55 | 356 | 0.0 | 1.0 | 0.00 | 0.00 | 0.00 | 57 | 1017.7 |
| 20260509132007 | 55 | 274 | 0.0 | 0.0 | 0.00 | 0.00 | 0.00 | 55 | 1017.7 |
| 20260509130506 | 55 | 274 | 0.0 | 1.0 | 0.00 | 0.00 | 0.00 | 55 | 1017.7 |
| 20260509130008 | 56 | 274 | 0.0 | 1.0 | 0.00 | 0.00 | 0.00 | 56 | 1017.5 |
| 20260509125006 | 55 | 274 | 0.0 | 1.0 | 0.00 | 0.00 | 0.00 | 57 | 1017.6 |
| 20260509124507 | 55 | 274 | 0.0 | 0.0 | 0.00 | 0.00 | 0.00 | 58 | 1017.7 |
| 20260509124005 | 55 | 274 | 0.0 | 1.0 | 0.00 | 0.00 | 0.00 | 59 | 1017.7 |
| 20260509123505 | 55 | 274 | 0.0 | 1.0 | 0.00 | 0.00 | 0.00 | 61 | 1017.7 |
| 20260509122506 | 53 | 40 | 0.0 | 1.0 | 0.00 | 0.00 | 0.00 | 69 | 1017.8 |
| 20260509122006 | 53 | 41 | 0.0 | 0.0 | 0.00 | 0.00 | 0.00 | 70 | 1017.7 |
| 20260509121006 | 53 | 41 | 0.0 | 1.0 | 0.00 | 0.00 | 0.00 | 71 | 1017.8 |
| 20260509120009 | 53 | 41 | 0.0 | 0.0 | 0.00 | 0.00 | 0.00 | 70 | 1017.8 |
| 20260509115506 | 53 | 41 | 0.0 | 0.0 | 0.00 | 0.00 | 0.00 | 70 | 1017.8 |
| 20260509115005 | 53 | 41 | 0.0 | 0.0 | 0.00 | 0.00 | 0.00 | 69 | 1017.8 |
| 20260509114507 | 54 | 41 | 0.0 | 0.0 | 0.00 | 0.00 | 0.00 | 69 | 1017.9 |
| 20260509114007 | 54 | 41 | 0.0 | 0.0 | 0.00 | 0.00 | 0.00 | 69 | 1017.8 |
| 20260509113505 | 54 | 41 | 0.0 | 0.0 | 0.00 | 0.00 | 0.00 | 68 | 1017.7 |
| 20260509113007 | 54 | 41 | 0.0 | 0.0 | 0.00 | 0.00 | 0.00 | 69 | 1017.6 |
| 20260509112006 | 54 | 41 | 0.0 | 0.0 | 0.00 | 0.00 | 0.00 | 71 | 1017.7 |
| 20260509111505 | 53 | 41 | 0.0 | 0.0 | 0.00 | 0.00 | 0.00 | 72 | 1017.7 |
| 20260509111006 | 54 | 41 | 0.0 | 1.0 | 0.00 | 0.00 | 0.00 | 72 | 1017.8 |
| 20260509110008 | 54 | 41 | 0.0 | 0.0 | 0.00 | 0.00 | 0.00 | 72 | 1017.8 |
| 20260509105506 | 53 | 41 | 0.0 | 0.0 | 0.00 | 0.00 | 0.00 | 72 | 1017.8 |
| 20260509105007 | 54 | 41 | 0.0 | 0.0 | 0.00 | 0.00 | 0.00 | 72 | 1017.8 |
| 20260509104506 | 53 | 41 | 0.0 | 0.0 | 0.00 | 0.00 | 0.00 | 72 | 1017.8 |
| 20260509104007 | 54 | 41 | 0.0 | 0.0 | 0.00 | 0.00 | 0.00 | 72 | 1017.9 |
| 20260509103505 | 54 | 41 | 0.0 | 0.0 | 0.00 | 0.00 | 0.00 | 73 | 1017.8 |
| 20260509103007 | 54 | 41 | 0.0 | 0.0 | 0.00 | 0.00 | 0.00 | 73 | 1017.8 |
| 20260509102006 | 54 | 41 | 0.0 | 0.0 | 0.00 | 0.00 | 0.00 | 73 | 1017.8 |
| 20260509101505 | 54 | 41 | 0.0 | 0.0 | 0.00 | 0.00 | 0.00 | 72 | 1017.9 |
| 20260509101006 | 54 | 41 | 0.0 | 0.0 | 0.00 | 0.00 | 0.00 | 71 | 1017.9 |
| 20260509100505 | 54 | 41 | 0.0 | 0.0 | 0.00 | 0.00 | 0.00 | 71 | 1017.9 |
| 20260509100008 | 54 | 41 | 0.0 | 0.0 | 0.00 | 0.00 | 0.00 | 72 | 1017.9 |
| 20260509095505 | 54 | 41 | 0.0 | 0.0 | 0.00 | 0.00 | 0.00 | 71 | 1017.9 |
| 20260509095005 | 54 | 41 | 0.0 | 0.0 | 0.00 | 0.00 | 0.00 | 71 | 1017.9 |
| 20260509094505 | 54 | 41 | 0.0 | 0.0 | 0.00 | 0.00 | 0.00 | 71 | 1017.9 |
| 20260509094006 | 54 | 41 | 0.0 | 0.0 | 0.00 | 0.00 | 0.00 | 71 | 1017.9 |
| 20260509093505 | 55 | 41 | 0.0 | 0.0 | 0.00 | 0.00 | 0.00 | 71 | 1018.0 |
| 20260509093007 | 55 | 41 | 0.0 | 0.0 | 0.00 | 0.00 | 0.00 | 71 | 1018.0 |
| 20260509092505 | 55 | 41 | 0.0 | 0.0 | 0.00 | 0.00 | 0.00 | 71 | 1018.0 |
| 20260509092006 | 55 | 41 | 0.0 | 0.0 | 0.00 | 0.00 | 0.00 | 71 | 1018.0 |
| 20260509091507 | 55 | 41 | 0.0 | 0.0 | 0.00 | 0.00 | 0.00 | 71 | 1018.1 |
| 20260509091006 | 55 | 41 | 0.0 | 0.0 | 0.00 | 0.00 | 0.00 | 71 | 1018.1 |
| 20260509090509 | 55 | 41 | 0.0 | 0.0 | 0.00 | 0.00 | 0.00 | 70 | 1018.1 |
| 20260509090005 | 55 | 41 | 0.0 | 0.0 | 0.00 | 0.00 | 0.00 | 70 | 1018.1 |
| 20260509085505 | 55 | 41 | 0.0 | 0.0 | 0.00 | 0.00 | 0.00 | 70 | 1018.1 |
| 20260509085007 | 55 | 41 | 0.0 | 0.0 | 0.00 | 0.00 | 0.00 | 70 | 1018.1 |
| 20260509084505 | 55 | 41 | 0.0 | 0.0 | 0.00 | 0.00 | 0.00 | 70 | 1018.3 |
| 20260509084007 | 55 | 41 | 0.0 | 0.0 | 0.00 | 0.00 | 0.00 | 70 | 1018.2 |
| 20260509083505 | 54 | 41 | 0.0 | 0.0 | 0.00 | 0.00 | 0.00 | 71 | 1018.3 |
| 20260509082506 | 55 | 41 | 0.0 | 1.0 | 0.00 | 0.00 | 0.00 | 71 | 1018.4 |
| 20260509082005 | 55 | 41 | 0.0 | 1.0 | 0.00 | 0.00 | 0.00 | 70 | 1018.5 |
| 20260509081506 | 55 | 41 | 0.0 | 0.0 | 0.00 | 0.00 | 0.00 | 70 | 1018.5 |
| 20260509081006 | 55 | 41 | 0.0 | 0.0 | 0.00 | 0.00 | 0.00 | 70 | 1018.5 |
| 20260509080009 | 55 | 41 | 0.0 | 0.0 | 0.00 | 0.00 | 0.00 | 70 | 1018.5 |
| 20260509075506 | 55 | 41 | 0.0 | 0.0 | 0.00 | 0.00 | 0.00 | 70 | 1018.5 |
| 20260509075006 | 55 | 41 | 0.0 | 0.0 | 0.00 | 0.00 | 0.00 | 70 | 1018.7 |
| 20260509074507 | 55 | 41 | 0.0 | 0.0 | 0.00 | 0.00 | 0.00 | 70 | 1018.6 |
| 20260509074007 | 55 | 41 | 0.0 | 0.0 | 0.00 | 0.00 | 0.00 | 70 | 1018.7 |
| 20260509073506 | 56 | 41 | 0.0 | 0.0 | 0.00 | 0.00 | 0.00 | 70 | 1018.6 |
| 20260509073008 | 55 | 41 | 0.0 | 0.0 | 0.00 | 0.00 | 0.00 | 69 | 1018.6 |
| 20260509072504 | 55 | 41 | 0.0 | 0.0 | 0.00 | 0.00 | 0.00 | 69 | 1018.5 |
| 20260509072008 | 56 | 41 | 0.0 | 0.0 | 0.00 | 0.00 | 0.00 | 70 | 1018.5 |
| 20260509071508 | 56 | 41 | 0.0 | 1.0 | 0.00 | 0.00 | 0.00 | 70 | 1018.6 |
| 20260509071010 | 56 | 41 | 0.0 | 1.0 | 0.00 | 0.00 | 0.00 | 70 | 1018.6 |
| 20260509070505 | 57 | 41 | 0.0 | 0.0 | 0.00 | 0.00 | 0.00 | 69 | 1018.6 |
| 20260509070013 | 57 | 41 | 0.0 | 0.0 | 0.00 | 0.00 | 0.00 | 67 | 1018.6 |
| 20260509065506 | 57 | 41 | 0.0 | 2.0 | 0.00 | 0.00 | 0.00 | 67 | 1018.7 |
| 20260509065006 | 58 | 41 | 0.0 | 2.0 | 0.00 | 0.00 | 0.00 | 66 | 1018.7 |
| 20260509064505 | 58 | 309 | 0.0 | 1.0 | 0.00 | 0.00 | 0.00 | 66 | 1018.7 |
| 20260509064005 | 57 | 309 | 0.0 | 1.0 | 0.00 | 0.00 | 0.00 | 67 | 1018.6 |
| 20260509063505 | 56 | 309 | 0.0 | 1.0 | 0.00 | 0.00 | 0.00 | 69 | 1018.7 |
| 20260509063006 | 56 | 318 | 0.0 | 0.0 | 0.00 | 0.00 | 0.00 | 70 | 1018.7 |
| 20260509062007 | 56 | 318 | 0.0 | 0.0 | 0.00 | 0.00 | 0.00 | 70 | 1018.8 |
| 20260509061005 | 55 | 318 | 0.0 | 0.0 | 0.00 | 0.00 | 0.00 | 71 | 1018.9 |
| 20260509060505 | 55 | 318 | 0.0 | 0.0 | 0.00 | 0.00 | 0.00 | 71 | 1018.9 |
| 20260509060007 | 55 | 318 | 0.0 | 0.0 | 0.00 | 0.00 | 0.00 | 71 | 1018.9 |
| 20260509055506 | 55 | 318 | 0.0 | 0.0 | 0.00 | 0.00 | 0.00 | 71 | 1018.9 |
| 20260509055006 | 55 | 318 | 0.0 | 0.0 | 0.00 | 0.00 | 0.00 | 72 | 1019.0 |
| 20260509054506 | 55 | 318 | 0.0 | 0.0 | 0.00 | 0.00 | 0.00 | 71 | 1019.0 |
| 20260509054006 | 55 | 318 | 0.0 | 0.0 | 0.00 | 0.00 | 0.00 | 72 | 1018.9 |
| 20260509053507 | 56 | 317 | 0.0 | 0.0 | 0.00 | 0.00 | 0.00 | 71 | 1018.9 |
| 20260509052008 | 55 | 318 | 0.0 | 0.0 | 0.00 | 0.00 | 0.00 | 73 | 1019.0 |
| 20260509051505 | 55 | 318 | 0.0 | 0.0 | 0.00 | 0.00 | 0.00 | 75 | 1019.0 |
| 20260509051006 | 56 | 318 | 0.0 | 0.0 | 0.00 | 0.00 | 0.00 | 74 | 1019.1 |
| 20260509050505 | 56 | 318 | 0.0 | 0.0 | 0.00 | 0.00 | 0.00 | 73 | 1018.9 |
| 20260509050007 | 56 | 318 | 0.0 | 0.0 | 0.00 | 0.00 | 0.00 | 73 | 1018.9 |
| 20260509045505 | 56 | 317 | 0.0 | 0.0 | 0.00 | 0.00 | 0.00 | 75 | 1018.9 |
| 20260509045007 | 56 | 318 | 0.0 | 0.0 | 0.00 | 0.00 | 0.00 | 75 | 1018.9 |
| 20260509044006 | 56 | 318 | 0.0 | 0.0 | 0.00 | 0.00 | 0.00 | 76 | 1018.9 |
| 20260509043506 | 57 | 318 | 0.0 | 0.0 | 0.00 | 0.00 | 0.00 | 75 | 1018.9 |
| 20260509043006 | 57 | 318 | 0.0 | 0.0 | 0.00 | 0.00 | 0.00 | 74 | 1018.9 |
| 20260509042005 | 57 | 318 | 0.0 | 0.0 | 0.00 | 0.00 | 0.00 | 74 | 1018.9 |
| 20260509041507 | 57 | 318 | 0.0 | 0.0 | 0.00 | 0.00 | 0.00 | 74 | 1018.9 |
| 20260509041006 | 57 | 318 | 0.0 | 0.0 | 0.00 | 0.00 | 0.00 | 75 | 1018.9 |
| 20260509035506 | 58 | 317 | 0.0 | 0.0 | 0.00 | 0.00 | 0.00 | 73 | 1018.9 |
| 20260509035007 | 58 | 317 | 0.0 | 0.0 | 0.00 | 0.00 | 0.00 | 73 | 1018.8 |
| 20260509034507 | 58 | 317 | 0.0 | 0.0 | 0.00 | 0.00 | 0.00 | 72 | 1018.9 |
| 20260509034006 | 59 | 317 | 0.0 | 0.0 | 0.00 | 0.00 | 0.00 | 71 | 1018.9 |
| 20260509033506 | 59 | 317 | 0.0 | 0.0 | 0.00 | 0.00 | 0.00 | 71 | 1018.9 |
| 20260509032506 | 60 | 317 | 0.0 | 0.0 | 0.00 | 0.00 | 0.00 | 70 | 1018.7 |
| 20260509032007 | 60 | 317 | 0.0 | 0.0 | 0.00 | 0.00 | 0.00 | 71 | 1018.6 |
| 20260509031504 | 61 | 317 | 0.0 | 0.0 | 0.00 | 0.00 | 0.00 | 69 | 1018.6 |
| 20260509031006 | 61 | 316 | 0.0 | 0.0 | 0.00 | 0.00 | 0.00 | 68 | 1018.5 |
| 20260509030505 | 62 | 316 | 0.0 | 0.0 | 0.00 | 0.00 | 0.00 | 68 | 1018.6 |
| 20260509030009 | 62 | 316 | 0.0 | 0.0 | 0.00 | 0.00 | 0.00 | 68 | 1018.5 |
| 20260509025505 | 62 | 316 | 0.0 | 1.0 | 0.00 | 0.00 | 0.00 | 67 | 1018.6 |
| 20260509025006 | 62 | 79 | 0.0 | 1.0 | 0.00 | 0.00 | 0.00 | 66 | 1018.6 |
| 20260509024506 | 63 | 79 | 0.0 | 0.0 | 0.00 | 0.00 | 0.00 | 65 | 1018.5 |
| 20260509023505 | 63 | 82 | 0.0 | 1.0 | 0.00 | 0.00 | 0.00 | 63 | 1018.5 |
| 20260509023006 | 64 | 82 | 0.0 | 1.0 | 0.00 | 0.00 | 0.00 | 62 | 1018.5 |
| 20260509022505 | 65 | 82 | 0.0 | 2.0 | 0.00 | 0.00 | 0.00 | 61 | 1018.6 |
| 20260509022006 | 65 | 82 | 0.0 | 2.0 | 0.00 | 0.00 | 0.00 | 60 | 1018.6 |
| 20260509021501 | 65 | 87 | 0.0 | 1.0 | 0.00 | 0.00 | 0.00 | 59 | 1018.5 |
| 20260509021007 | 66 | 115 | 0.0 | 3.0 | 0.00 | 0.00 | 0.00 | 58 | 1018.6 |
| 20260509020003 | 66 | 243 | 0.0 | 3.0 | 0.00 | 0.00 | 0.00 | 56 | 1018.6 |
| 20260509015505 | 66 | 209 | 0.0 | 1.0 | 0.00 | 0.00 | 0.00 | 54 | 1018.6 |
| 20260509015006 | 67 | 69 | 0.0 | 1.0 | 0.00 | 0.00 | 0.00 | 53 | 1018.6 |
| 20260509014509 | 67 | 109 | 0.0 | 2.0 | 0.00 | 0.00 | 0.00 | 53 | 1018.6 |
| 20260509014005 | 67 | 132 | 0.0 | 2.0 | 0.00 | 0.00 | 0.00 | 52 | 1018.7 |
| 20260509013505 | 68 | 139 | 0.0 | 1.0 | 0.00 | 0.00 | 0.00 | 51 | 1018.7 |
| 20260509012505 | 68 | 154 | 0.0 | 5.0 | 0.00 | 0.00 | 0.00 | 49 | 1018.8 |
| 20260509012006 | 68 | 108 | 0.0 | 3.0 | 0.00 | 0.00 | 0.00 | 49 | 1018.8 |
| 20260509011007 | 69 | 124 | 1.0 | 4.0 | 0.00 | 0.00 | 0.00 | 47 | 1018.8 |
| 20260509010506 | 69 | 79 | 1.0 | 3.0 | 0.00 | 0.00 | 0.00 | 46 | 1018.8 |
| 20260509010008 | 69 | 127 | 0.0 | 3.0 | 0.00 | 0.00 | 0.00 | 45 | 1018.9 |
| 20260509005006 | 70 | 77 | 1.0 | 4.0 | 0.00 | 0.00 | 0.00 | 44 | 1018.9 |
| 20260509004506 | 70 | 113 | 1.0 | 3.0 | 0.00 | 0.00 | 0.00 | 42 | 1018.9 |
| 20260509003506 | 71 | 214 | 1.0 | 4.0 | 0.00 | 0.00 | 0.00 | 40 | 1018.9 |
| 20260509003006 | 71 | 106 | 1.0 | 4.0 | 0.00 | 0.00 | 0.00 | 40 | 1019.0 |
| 20260509002505 | 71 | 263 | 1.0 | 3.0 | 0.00 | 0.00 | 0.00 | 37 | 1019.0 |
| 20260509001007 | 72 | 222 | 2.0 | 8.0 | 0.00 | 0.00 | 0.00 | 37 | 1019.1 |
| 20260508235507 | 73 | 127 | 1.0 | 5.0 | 0.00 | 0.00 | 0.00 | 35 | 1019.1 |
| 20260508235005 | 74 | 153 | 2.0 | 5.0 | 0.00 | 0.00 | 0.00 | 36 | 1019.3 |
| 20260508234505 | 75 | 88 | 1.0 | 5.0 | 0.00 | 0.00 | 0.00 | 36 | 1019.1 |
| 20260508234005 | 76 | 86 | 1.0 | 6.0 | 0.00 | 0.00 | 0.00 | 35 | 1019.2 |
| 20260508233505 | 75 | 246 | 2.0 | 6.0 | 0.00 | 0.00 | 0.00 | 39 | 1019.2 |
| 20260508232501 | 76 | 158 | 2.0 | 5.0 | 0.00 | 0.00 | 0.00 | 37 | 1019.1 |
| 20260508232006 | 76 | 143 | 3.0 | 5.0 | 0.00 | 0.00 | 0.00 | 38 | 1019.2 |
| 20260508231506 | 76 | 149 | 2.0 | 7.0 | 0.00 | 0.00 | 0.00 | 37 | 1019.2 |
| 20260508230500 | 76 | 41 | 3.0 | 8.0 | 0.00 | 0.00 | 0.00 | 39 | 1019.4 |
| 20260508225505 | 77 | 209 | 2.0 | 5.0 | 0.00 | 0.00 | 0.00 | 38 | 1019.5 |
| 20260508225007 | 76 | 198 | 2.0 | 7.0 | 0.00 | 0.00 | 0.00 | 40 | 1019.6 |
| 20260508224505 | 76 | 94 | 2.0 | 9.0 | 0.00 | 0.00 | 0.00 | 38 | 1019.7 |
| 20260508224006 | 76 | 63 | 2.0 | 9.0 | 0.00 | 0.00 | 0.00 | 38 | 1019.8 |
| 20260508223505 | 77 | 215 | 2.0 | 7.0 | 0.00 | 0.00 | 0.00 | 36 | 1019.9 |
| 20260508223005 | 76 | 101 | 2.0 | 7.0 | 0.00 | 0.00 | 0.00 | 36 | 1019.9 |
| 20260508222504 | 77 | 127 | 3.0 | 8.0 | 0.00 | 0.00 | 0.00 | 36 | 1020.0 |
| 20260508222006 | 78 | 203 | 2.0 | 6.0 | 0.00 | 0.00 | 0.00 | 37 | 1020.1 |
| 20260508221005 | 78 | 129 | 1.0 | 4.0 | 0.00 | 0.00 | 0.00 | 33 | 1020.1 |
| 20260508220505 | 79 | 212 | 1.0 | 5.0 | 0.00 | 0.00 | 0.00 | 31 | 1020.1 |
| 20260508220004 | 78 | 1 | 1.0 | 4.0 | 0.00 | 0.00 | 0.00 | 32 | 1020.2 |
| 20260508215504 | 77 | 286 | 2.0 | 4.0 | 0.00 | 0.00 | 0.00 | 31 | 1020.2 |
| 20260508215005 | 77 | 152 | 1.0 | 5.0 | 0.00 | 0.00 | 0.00 | 32 | 1020.3 |
| 20260508214504 | 77 | 33 | 2.0 | 6.0 | 0.00 | 0.00 | 0.00 | 31 | 1020.3 |
| 20260508214007 | 75 | 342 | 2.0 | 6.0 | 0.00 | 0.00 | 0.00 | 32 | 1020.3 |
| 20260508213005 | 77 | 293 | 3.0 | 7.0 | 0.00 | 0.00 | 0.00 | 30 | 1020.4 |
| 20260508212506 | 78 | 164 | 2.0 | 6.0 | 0.00 | 0.00 | 0.00 | 31 | 1020.4 |
| 20260508212007 | 79 | 129 | 2.0 | 5.0 | 0.00 | 0.00 | 0.00 | 33 | 1020.4 |
| 20260508211508 | 79 | 153 | 1.0 | 5.0 | 0.00 | 0.00 | 0.00 | 32 | 1020.4 |
| 20260508211006 | 79 | 98 | 1.0 | 4.0 | 0.00 | 0.00 | 0.00 | 32 | 1020.5 |
| 20260508210007 | 78 | 256 | 2.0 | 7.0 | 0.00 | 0.00 | 0.00 | 34 | 1020.4 |
| 20260508205507 | 78 | 274 | 2.0 | 4.0 | 0.00 | 0.00 | 0.00 | 32 | 1020.5 |
| 20260508205007 | 78 | 236 | 2.0 | 8.0 | 0.00 | 0.00 | 0.00 | 34 | 1020.5 |
| 20260508203506 | 79 | 103 | 1.0 | 7.0 | 0.00 | 0.00 | 0.00 | 31 | 1020.3 |
| 20260508202510 | 80 | 225 | 1.0 | 3.0 | 0.00 | 0.00 | 0.00 | 32 | 1020.4 |
| 20260508202011 | 80 | 271 | 1.0 | 4.0 | 0.00 | 0.00 | 0.00 | 28 | 1020.4 |
| 20260508201505 | 79 | 253 | 2.0 | 6.0 | 0.00 | 0.00 | 0.00 | 27 | 1020.4 |
| 20260508201005 | 78 | 217 | 2.0 | 6.0 | 0.00 | 0.00 | 0.00 | 26 | 1020.4 |
| 20260508200509 | 78 | 111 | 2.0 | 5.0 | 0.00 | 0.00 | 0.00 | 23 | 1020.6 |
| 20260508200013 | 78 | 137 | 2.0 | 6.0 | 0.00 | 0.00 | 0.00 | 23 | 1020.6 |
| 20260508195505 | 79 | 128 | 1.0 | 5.0 | 0.00 | 0.00 | 0.00 | 22 | 1020.6 |
| 20260508195006 | 78 | 221 | 1.0 | 3.0 | 0.00 | 0.00 | 0.00 | 26 | 1020.6 |
| 20260508194510 | 78 | 249 | 1.0 | 4.0 | 0.00 | 0.00 | 0.00 | 25 | 1020.6 |
| 20260508194010 | 78 | 242 | 2.0 | 6.0 | 0.00 | 0.00 | 0.00 | 25 | 1020.7 |
| 20260508193505 | 78 | 245 | 1.0 | 6.0 | 0.00 | 0.00 | 0.00 | 26 | 1020.6 |
| 20260508193009 | 78 | 102 | 1.0 | 5.0 | 0.00 | 0.00 | 0.00 | 27 | 1020.6 |
| 20260508191508 | 77 | 48 | 1.0 | 5.0 | 0.00 | 0.00 | 0.00 | 27 | 1020.7 |
| 20260508191007 | 77 | 153 | 2.0 | 6.0 | 0.00 | 0.00 | 0.00 | 27 | 1020.7 |
| 20260508190506 | 77 | 260 | 2.0 | 6.0 | 0.00 | 0.00 | 0.00 | 24 | 1020.8 |
| 20260508190009 | 77 | 127 | 1.0 | 5.0 | 0.00 | 0.00 | 0.00 | 25 | 1020.9 |
| 20260508185505 | 77 | 243 | 1.0 | 5.0 | 0.00 | 0.00 | 0.00 | 24 | 1020.9 |
| 20260508185006 | 76 | 215 | 1.0 | 4.0 | 0.00 | 0.00 | 0.00 | 24 | 1020.9 |
| 20260508184505 | 77 | 233 | 1.0 | 4.0 | 0.00 | 0.00 | 0.00 | 25 | 1020.9 |
| 20260508184008 | 77 | 136 | 1.0 | 5.0 | 0.00 | 0.00 | 0.00 | 25 | 1020.9 |
| 20260508183505 | 76 | 259 | 1.0 | 5.0 | 0.00 | 0.00 | 0.00 | 26 | 1020.9 |
| 20260508183008 | 76 | 252 | 1.0 | 5.0 | 0.00 | 0.00 | 0.00 | 23 | 1020.9 |
| 20260508182505 | 76 | 261 | 1.0 | 5.0 | 0.00 | 0.00 | 0.00 | 29 | 1020.9 |
| 20260508182006 | 77 | 276 | 1.0 | 4.0 | 0.00 | 0.00 | 0.00 | 25 | 1020.9 |
| 20260508181506 | 76 | 110 | 1.0 | 4.0 | 0.00 | 0.00 | 0.00 | 27 | 1020.9 |
| 20260508181008 | 76 | 133 | 1.0 | 5.0 | 0.00 | 0.00 | 0.00 | 25 | 1020.8 |
| 20260508180504 | 76 | 153 | 1.0 | 5.0 | 0.00 | 0.00 | 0.00 | 29 | 1020.8 |
| 20260508180006 | 76 | 28 | 1.0 | 4.0 | 0.00 | 0.00 | 0.00 | 27 | 1020.9 |
| 20260508175506 | 75 | 113 | 1.0 | 5.0 | 0.00 | 0.00 | 0.00 | 28 | 1020.9 |
| 20260508175006 | 75 | 214 | 1.0 | 5.0 | 0.00 | 0.00 | 0.00 | 30 | 1020.8 |
| 20260508174007 | 75 | 148 | 1.0 | 4.0 | 0.00 | 0.00 | 0.00 | 28 | 1020.7 |
| 20260508173504 | 74 | 108 | 1.0 | 4.0 | 0.00 | 0.00 | 0.00 | 30 | 1020.8 |
| 20260508173005 | 73 | 130 | 2.0 | 7.0 | 0.00 | 0.00 | 0.00 | 31 | 1020.8 |
| 20260508172506 | 73 | 276 | 1.0 | 7.0 | 0.00 | 0.00 | 0.00 | 31 | 1020.8 |
| 20260508172005 | 74 | 237 | 1.0 | 4.0 | 0.00 | 0.00 | 0.00 | 32 | 1020.8 |
| 20260508171506 | 73 | 201 | 1.0 | 5.0 | 0.00 | 0.00 | 0.00 | 33 | 1020.7 |
| 20260508171006 | 73 | 265 | 1.0 | 5.0 | 0.00 | 0.00 | 0.00 | 33 | 1020.8 |
| 20260508170507 | 73 | 146 | 1.0 | 3.0 | 0.00 | 0.00 | 0.00 | 34 | 1020.7 |
| 20260508170006 | 72 | 265 | 1.0 | 5.0 | 0.00 | 0.00 | 0.00 | 36 | 1020.6 |
| 20260508165506 | 72 | 196 | 1.0 | 5.0 | 0.00 | 0.00 | 0.00 | 34 | 1020.6 |
| 20260508165006 | 72 | 158 | 2.0 | 5.0 | 0.00 | 0.00 | 0.00 | 38 | 1020.6 |
| 20260508164505 | 72 | 131 | 1.0 | 5.0 | 0.00 | 0.00 | 0.00 | 35 | 1020.6 |
| 20260508164008 | 72 | 155 | 1.0 | 4.0 | 0.00 | 0.00 | 0.00 | 35 | 1020.6 |
| 20260508163504 | 72 | 127 | 1.0 | 5.0 | 0.00 | 0.00 | 0.00 | 39 | 1020.6 |
| 20260508163008 | 72 | 154 | 1.0 | 5.0 | 0.00 | 0.00 | 0.00 | 37 | 1020.6 |
| 20260508162005 | 71 | 167 | 0.0 | 4.0 | 0.00 | 0.00 | 0.00 | 39 | 1020.5 |
| 20260508161506 | 71 | 120 | 0.0 | 2.0 | 0.00 | 0.00 | 0.00 | 41 | 1020.5 |
| 20260508161006 | 70 | 153 | 1.0 | 2.0 | 0.00 | 0.00 | 0.00 | 39 | 1020.6 |
| 20260508160505 | 69 | 143 | 1.0 | 4.0 | 0.00 | 0.00 | 0.00 | 40 | 1020.6 |
| 20260508160007 | 69 | 172 | 1.0 | 4.0 | 0.00 | 0.00 | 0.00 | 40 | 1020.6 |
| 20260508155505 | 68 | 132 | 0.0 | 2.0 | 0.00 | 0.00 | 0.00 | 41 | 1020.6 |
| 20260508155007 | 67 | 96 | 0.0 | 2.0 | 0.00 | 0.00 | 0.00 | 43 | 1020.6 |
| 20260508154506 | 67 | 203 | 0.0 | 1.0 | 0.00 | 0.00 | 0.00 | 43 | 1020.6 |
| 20260508154005 | 67 | 355 | 0.0 | 1.0 | 0.00 | 0.00 | 0.00 | 52 | 1020.5 |
| 20260508153505 | 68 | 355 | 0.0 | 0.0 | 0.00 | 0.00 | 0.00 | 50 | 1020.6 |
| 20260508153006 | 68 | 355 | 0.0 | 1.0 | 0.00 | 0.00 | 0.00 | 54 | 1020.6 |
| 20260508152503 | 68 | 355 | 0.0 | 1.0 | 0.00 | 0.00 | 0.00 | 54 | 1020.6 |
| 20260508152006 | 68 | 355 | 0.0 | 0.0 | 0.00 | 0.00 | 0.00 | 52 | 1020.5 |
| 20260508151505 | 68 | 355 | 0.0 | 0.0 | 0.00 | 0.00 | 0.00 | 52 | 1020.5 |
| 20260508151005 | 66 | 355 | 0.0 | 0.0 | 0.00 | 0.00 | 0.00 | 57 | 1020.5 |
| 20260508150505 | 65 | 355 | 0.0 | 0.0 | 0.00 | 0.00 | 0.00 | 58 | 1020.5 |
| 20260508150005 | 64 | 355 | 0.0 | 1.0 | 0.00 | 0.00 | 0.00 | 59 | 1020.6 |
| 20260508145505 | 63 | 356 | 0.0 | 1.0 | 0.00 | 0.00 | 0.00 | 58 | 1020.4 |
| 20260508144505 | 59 | 261 | 0.0 | 0.0 | 0.00 | 0.00 | 0.00 | 64 | 1020.3 |
| 20260508143006 | 56 | 261 | 0.0 | 0.0 | 0.00 | 0.00 | 0.00 | 65 | 1020.3 |
| 20260508142505 | 56 | 261 | 0.0 | 0.0 | 0.00 | 0.00 | 0.00 | 64 | 1020.3 |
| 20260508142006 | 55 | 261 | 0.0 | 0.0 | 0.00 | 0.00 | 0.00 | 65 | 1020.2 |
| 20260508141006 | 55 | 261 | 0.0 | 1.0 | 0.00 | 0.00 | 0.00 | 62 | 1020.1 |
| 20260508140505 | 55 | 261 | 0.0 | 1.0 | 0.00 | 0.00 | 0.00 | 62 | 1020.0 |
| 20260508140005 | 55 | 261 | 0.0 | 1.0 | 0.00 | 0.00 | 0.00 | 62 | 1020.0 |
| 20260508135506 | 54 | 261 | 0.0 | 1.0 | 0.00 | 0.00 | 0.00 | 62 | 1020.0 |
| 20260508134505 | 54 | 276 | 0.0 | 1.0 | 0.00 | 0.00 | 0.00 | 61 | 1019.9 |
| 20260508134006 | 54 | 276 | 0.0 | 1.0 | 0.00 | 0.00 | 0.00 | 61 | 1020.0 |